METEOR PRIRODA

Last updated on Fri Oct 31 2025 00:02:12 GMT+0000 (Coordinated Universal Time)

1 12585U 81065A 25303.23113973 .00343228 50551-4 74635-3 0 9993 2 12585 97.4637 6.2586 0001227 323.6326 36.4867 15.98307412423826
UTC large
Height (km)
Speed (km/s)
/
Latitude / Longitude
Inclination (degrees)
Orbital Period (minutes)
Azimuth
Elevation
Range (km)
Doppler Factor

Next 0 passes for location: London (51.5072 / 0.1276)

Sorry there are no passes over London.